OBJECT J, 57174

Orbit data source: Space-Track

You're viewing an Uncataloged Satellite

Recently launched and/or uncataloged satellites may have evolving metadata. Metadata may include but not limited to: Owner, Maufacturer, Bus, Motor, and Mission.

OBJECT J, 57174 is a satellite in SSO that was launched on Tue, 27 Jun 2023 UTC via a SOYUZ-2-1B launch vehicle from the Vostochny Cosmodrome (VOSTO). Unknown objects in Earth's orbit typically refer to objects detected orbiting the Earth but have not yet been identified or cataloged. These objects could be anything from previously untracked satellites, spent rocket stages, debris from satellite collisions, or even natural meteoroids temporarily captured by Earth's gravity.

Loading next visibility...
Identifier
57174, 2023-091J
Orbit
SSO
Country
Flag of TBDTBD
Related business
None
Manufacturer
Unknown
Mission
Operational Amateur Technology
Bus & Motor
Unknown
Mass
Unknown
Launch date (UTC)
2023-06-27 (3 years ago)
Launch vehicle
SOYUZ-2-1B
Launch site
Vostochny Cosmodrome (VOSTO)
Object type
Unknown
Shape & HBR
Box, 0.1 m
Radar Cross Section
0.080 m², Medium (>0.1 m² and < 1m²)

Expand to show TLE details & history
Last TLE update: 18 hours ago

TLE from 18 hours ago
0 OBJECT J
1 57174U 23091J   26145.58251648  .00003108  00000-0  17583-3 0  9995
2 57174  97.5070 199.0023 0012271 220.2119 139.8205 15.13745183160214
Epoch: 2026-05-25T13:58Z
TLE epoch observation values (Epoch: 2026-05-25T13:58:49.423Z)
Latitude
-0.00011°
Longitude
106.12815°
Altitude
534.347 km
Speed
7.592 km/s
True Right ascension
13h 16m 00s
True Declination
0° 00' 00"
Sunlit
Object was in full shadow at epoch
Visualization orbit readout
Latitude
Unknown
Longitude
Unknown
Altitude
Unknown
Speed
Unknown
Apparent Right ascension
Unknown
Apparent Declination
Unknown
Sunlit
N/A
Visualization observer readout
Local Sidereal Time
17:20:03
Azimuth
Unknown
Elevation
Unknown
Doppler factor
Unknown
Orbital elements
Apogee altitude
530.236 km
Perigee altitude
513.302 km
Semi-major axis
6,899.906 km
Eccentricity
0.00123
Inclination
97.507°
RAAN
199.0023°
Arg. of periapsis
220.2119°
True anomaly
139.91112°
Mean anomaly
139.8205°
Eccentric anomaly
139.86582°
Mean motion
3.78685 °/min
Orbital period
95.07 mins
BSTAR
0.00017583
Loading maneuver chart data...
Computing Atmospheric mass density...
Loading historical data...
Loading historical data...
Loading historical data...
Loading historical data...
Loading historical data...
Loading historical data...
Loading historical data...

Documentation

Showing up to 5 results
|